Regional Weather Roundup
Issued by NWS

Home | Current Version | Previous Version | Text Only | Print | Product List | Glossary Off
Versions: 1 2 3 4 5 6 7 8 9 10 11 12 13 14 15 16 17 18 19 20 21 22 23 24 25 26 27 28 29 30 31 32 33 34 35 36 37 38 39 40 41 42 43 44 45 46 47 48 49 50

000
ASUS45 KPSR 180500
RWRAZ

ARIZONA REGIONAL HOURLY WEATHER ROUNDUP
NATIONAL WEATHER SERVICE PHOENIX AZ
1000 PM MST FRI APR 17 2015

NOTE: FAIR INDICATES FEW OR NO CLOUDS BELOW 12,000 FEET WITH NO
SIGNIFICANT WEATHER AND/OR OBSTRUCTIONS TO VISIBILITY.

AZZ001>003-036-180600-
NORTHWEST ARIZONA

CITY           SKY/WX    TMP DP  RH WIND       PRES   REMARKS
KINGMAN        FAIR      50  22  33 SE8       30.02S
$$

AZZ004>008-015-016-018-180600-
NORTH CENTRAL ARIZONA

CITY           SKY/WX    TMP DP  RH WIND       PRES   REMARKS
GRAND CANYON   FAIR      33  26  75 CALM      30.12R
WILLIAMS       FAIR      34  25  69 S3        30.19R
PRESCOTT       FAIR      52  22  30 W7        30.08S
FLAGSTAFF      NOT AVBL
PAYSON         CLOUDY    52  18  25 CALM      30.10S
PAGE           CLOUDY    58  31  35 N9        30.01R
$$

AZZ009>014-017-180600-
NORTHEAST ARIZONA

CITY           SKY/WX    TMP DP  RH WIND       PRES   REMARKS
WINSLOW        NOT AVBL
SAINT JOHNS    FAIR      45  24  43 W7        30.07S
WINDOW ROCK    FAIR      37  27  67 N3        30.06S
SHOW LOW       MOCLDY    41  19  42 CALM      30.12S
$$

AZZ023-180600-
GREATER PHOENIX AREA

CITY           SKY/WX    TMP DP  RH WIND       PRES   REMARKS
PHOENIX        FAIR      73  20  13 SE7       29.93R
DEER VALLEY    FAIR      70  21  15 SE3       29.94R
SCOTTSDALE     FAIR      69  23  17 E3        29.97R
MESA-GATEWAY   CLEAR     63  27  25 SE6       29.98R
$$

AZZ027-028-180600-
SOUTHWEST MARICOPA COUNTY AND PINAL COUNTY

CITY           SKY/WX    TMP DP  RH WIND       PRES   REMARKS
CASA GRANDE    FAIR      63  18  17 CALM      29.96R
$$

AZZ503-504-507>509-180600-
SOUTHEAST ARIZONA

CITY           SKY/WX    TMP DP  RH WIND       PRES   REMARKS
TUCSON         FAIR      62  19  19 CALM      30.05R
NOGALES        FAIR      54  17  23 NE8       30.07R
SAFFORD        FAIR      57  14  18 N10       30.02S
$$

AZZ020-021-025-026-031-180600-
SOUTHWEST ARIZONA

CITY           SKY/WX    TMP DP  RH WIND       PRES   REMARKS
YUMA           FAIR      71  30  21 S5        29.95R
$$

CAZ031-033-041-043-047-048-061-180600-
SOUTHERN CALIFORNIA

CITY           SKY/WX    TMP DP  RH WIND       PRES   REMARKS
DOWNTOWN L.A.  FAIR      65  44  46 CALM      30.00R
L.A. AIRPORT   FAIR      65  43  44 SW9       30.01R
SAN DIEGO      FAIR      67  42  40 N8        30.04R
BURBANK        FAIR      69  19  15 CALM      30.01S
ONTARIO        FAIR      65  29  25 W5        30.02R
RIVERSIDE      FAIR      67  24  19 CALM      30.03R
PALM SPRINGS   FAIR      78  21  12 N8        29.96R
EL CENTRO NAS  FAIR      71  25  17 W9        29.93R
IMPERIAL       FAIR      73  25  16 S3        29.92R
BLYTHE         FAIR      74  22  14 SW9       29.94R
$$

NVZ020-UTZ003-180600-
SOUTHERN NEVADA-UTAH

CITY           SKY/WX    TMP DP  RH WIND       PRES   REMARKS
LAS VEGAS      NOT AVBL
SALT LAKE CITY MOCLDY    54  37  52 SE10      30.04R
$$

NMZ009-TXZ055-180600-
NEW MEXICO-WEST TEXAS

CITY           SKY/WX    TMP DP  RH WIND       PRES   REMARKS
ALBUQUERQUE    CLOUDY    46  25  43 N12       30.06S
EL PASO        FAIR      62   5  10 E3        30.00R
$$


........................KEY........................
SKY/WX - SKY CONDITION/WEATHER
TMP    - TEMPERATURE IN FAHRENHEIT
DP     - DEW POINT IN FAHRENHEIT
RH     - RELATIVE HUMIDITY IN PERCENT
WIND   - DIRECTION AND SPEED IN MILES PER HOUR (MPH)
VRB    - VARIABLE WIND DIRECTION
PRES   - MEAN SEA LEVEL PRESSURE IN INCHES OF MERCURY
         F - FALLING PRESSURE   R - RISING PRESSURE
         S - STEADY PRESSURE
VSB    - VISIBILITY IN MILES
HX     - HEAT INDEX IN FAHRENHEIT
WCI    - WIND CHILL INDEX IN FAHRENHEIT
TC     - TEMPERATURE IN CELSIUS WHICH IS ALSO KNOWN AS
         TEMPERATURE IN CENTIGRADE
AFB    - AIR FORCE BASE
         LUKE AFB IS LUKE AIR FORCE BASE
         DAVIS-MONTHAN IS DAVIS-MONTHAN AIR FORCE BASE
NAS    - NAVAL AIR STATION
         EL CENTRO NAS IS EL CENTRO NAVAL AIR STATION
N/A    - NOT AVAILABLE




USA.gov is the U.S. government's official web portal to all federal, state and local government web resources and services.